SCP
4 4 5 4 4 4 4 3 2 2 2 2 2 2 2 2 2 2 2 3 3 2 2 2 2 2 2 2 2 2 2 2 1 1 1 0 0 0 0 0 0 0 0
4 4 5 4 4 4 3 3 2 2 2 2 2 2 2 2 2 2 3 3 3 3 2 2 2 2 2 2 2 2 2 1 1 1 1 0 0 0 0 0 0 0 0
3 4 4 4 4 4 3 3 2 2 2 2 2 2 2 2 2 3 3 3 3 3 2 2 2 2 2 1 1 1 1 1 1 1 0 0 0 0 0 0 0 0 0
2 3 3 3 3 3 3 3 3 3 3 2 2 2 2 3 3 3 3 3 3 2 2 2 2 1 1 1 1 1 1 1 1 0 0 0 0 0 0 0 0 0 0
2 2 2 2 2 2 3 3 3 3 3 3 3 2 2 2 3 3 3 3 2 2 1 1 1 1 1 1 1 1 1 1 0 0 0 0 0 0 0 0 0 0 0
1 1 2 2 2 2 2 2 2 2 2 2 2 2 2 2 2 3 2 2 1 1 1 1 1 1 1 1 1 0 0 0 0 0 0 0 0 0 0 0 0 0 0
1 1 1 1 1 2 2 2 2 2 2 2 2 2 2 2 2 2 1 1 1 0 0 0 0 0 0 0 0 0 0 0 0 0 0 0 0 0 0 0 0 0 0
0 0 0 1 1 1 1 1 1 1 1 1 1 1 1 1 1 1 1 0 0 0 0 0 0 0 0 0 0 0 0 0 0 0 0 0 0 0 0 0 0 0 0
0 0 0 0 0 0 1 1 1 1 1 0 0 0 0 0 0 0 0 0 0 0 0 0 0 0 0 0 0 0 0 0 0 0 0 0 0 0 0 0 0 0 0
0 0 0 0 0 0 0 0 0 0 0 0 0 0 0 0 0 0 0 0 0 0 0 0 0 0 0 0 0 0 0 0 0 0 0 0 0 0 0 0 0 0 0
0 0 0 0 0 0 0 0 0 0 0 0 0 0 0 0 0 0 0 0 0 0 0 0 0 0 0 0 0 0 0 0 0 0 0 0 0 0 0 0 0 0 0
0 0 0 0 0 0 0 0 0 0 0 0 0 0 0 0 0 0 0 0 0 0 0 0 0 0 0 0 0 0 0 0 0 0 0 0 0 0 0 0 0 0 0
0 0 0 0 0 0 0 0 0 0 0 0 0 0 0 0 0 0 0 0 0 0 0 0 0 0 0 0 0 0 0 0 0 0 0 0 0 0 0 0 0 0 0
0 0 0 0 0 0 0 0 0 0 0 0 0 0 0 0 0 0 0 0 0 0 0 0 0 0 0 0 0 0 0 0 0 0 0 0 0 0 0 0 0 0 0
0 0 0 0 0 0 0 0 0 0 0 0 0 0 0 0 0 0 0 0 0 0 0 0 0 0 0 0 0 0 0 0 0 0 0 0 0 0 0 0 0 0 0
0 0 0 0 0 0 0 0 0 0 0 0 0 0 0 0 0 0 0 0 0 0 0 0 0 0 0 0 0 0 0 0 0 0 0 0 0 0 0 0 0 0 0
0 0 0 0 0 0 0 0 0 0 0 0 0 0 0 0 0 0 0 0 0 0 0 0 0 0 0 0 0 0 0 0 0 0 0 0 0 0 0 0 0 0 0
0 0 0 0 0 0 0 0 0 0 0 0 0 0 0 0 0 0 0 0 0 0 0 0 0 0 0 0 0 0 0 0 0 0 0 0 0 0 0 0 0 0 0
0 0 0 0 0 0 0 0 0 0 0 0 0 0 0 0 0 0 0 0 0 0 0 0 0 0 0 0 0 0 0 0 0 0 0 0 0 0 0 0 0 0 0
0 0 0 0 0 0 0 0 0 0 0 0 0 0 0 0 0 0 0 0 0 0 0 0 0 0 0 0 0 0 0 0 0 0 0 0 0 0 0 0 0 0 0
0 0 0 0 0 0 0 0 0 0 0 0 0 0 0 0 0 0 0 0 0 0 0 0 0 0 0 0 0 0 0 0 0 0 0 0 0 0 0 0 0 0 0
0 0 0 0 0 0 0 0 0 0 0 0 0 0 0 0 0 0 0 0 0 0 0 0 0 0 0 0 0 0 0 0 0 0 0 0 0 0 0 0 0 0 0
0 0 0 0 0 0 0 0 0 0 0 0 0 0 0 0 0 0 0 0 0 0 0 0 0 0 0 0 0 0 0 0 0 0 0 0 0 0 0 0 0 0 0
0 0 0 0 0 0 0 0 0 0 0 0 0 0 0 0 0 0 0 0 0 0 0 0 0 0 0 0 0 0 0 0 0 0 0 0 0 0 0 0 0 0 0
0 0 0 0 0 0 0 0 0 0 0 0 0 0 0 0 0 0 0 0 0 0 0 0 0 0 0 0 0 0 0 0 0 0 0 0 0 0 0 0 0 0 0
0 0 0 0 0 0 0 0 0 0 0 0 0 0 0 0 0 0 0 0 0 0 0 0 0 0 0 0 0 0 0 0 0 0 0 0 0 0 0 0 0 0 0
Wind_Speed
7 10 10 11 12 11 10 8 8 8 7 6 6 5 4 3 3 3 4 5 4 4 4 3 3 3 3 3 3 2 3 2 1 1 1 1 1 0 0 0 1 2 3
8 9 10 9 9 9 8 8 6 7 7 5 4 4 4 4 3 3 3 4 4 4 4 3 2 2 2 3 4 3 2 2 2 2 2 1 1 2 1 1 1 2 2
10 10 10 9 8 6 5 5 5 5 6 6 4 4 3 3 3 3 3 3 3 3 2 2 2 2 2 3 4 4 5 3 3 3 3 3 4 2 1 1 1 1 1
14 12 11 11 9 6 5 5 4 3 3 3 4 5 5 4 4 3 3 3 3 3 2 1 1 0 0 1 3 2 2 3 3 2 2 1 1 2 2 1 1 1 1
13 13 12 12 11 9 7 6 6 5 3 2 2 2 2 1 2 3 4 4 5 5 5 5 4 3 3 3 3 3 2 0 1 1 1 1 0 0 2 2 2 1 1
13 14 14 14 14 13 11 9 9 8 7 5 4 3 3 2 3 3 5 5 5 5 7 7 6 6 5 6 6 5 6 5 4 3 3 2 1 1 1 1 1 1 1
13 14 15 15 15 15 13 11 11 11 11 10 9 8 7 7 6 6 6 7 6 6 8 8 9 8 8 8 8 8 8 8 8 6 5 5 4 2 2 2 1 1 1
13 14 14 13 14 15 15 14 14 13 13 13 13 12 11 9 9 11 10 9 8 8 9 10 11 11 10 10 9 9 9 9 9 10 8 6 6 5 5 3 2 1 1
13 13 13 13 14 14 14 15 15 16 16 15 15 15 15 14 14 13 13 11 10 10 13 13 13 12 12 12 10 9 10 9 9 9 9 7 6 6 5 5 4 2 2
13 13 13 13 13 13 14 15 16 16 15 15 14 14 15 15 14 14 15 14 13 12 13 13 13 13 12 12 11 9 9 10 9 7 8 7 5 5 4 4 3 2 2
12 12 12 13 13 13 14 15 15 15 15 15 15 16 15 15 15 15 14 13 12 12 13 12 12 12 11 10 9 8 8 8 7 6 6 6 5 4 4 3 3 2 2
12 12 13 13 13 13 14 14 14 15 15 14 15 15 15 15 15 15 13 12 12 11 11 11 11 10 9 8 8 8 7 6 6 5 4 4 4 4 3 3 3 2 1
12 12 12 12 12 12 13 13 13 14 14 14 14 15 14 14 14 13 12 11 11 10 10 10 9 8 7 7 6 5 4 3 3 3 3 2 3 3 2 3 2 3 3
12 12 11 11 11 11 12 12 12 12 13 13 13 14 13 12 12 11 10 9 9 9 8 8 7 8 8 8 7 5 3 2 2 2 2 2 2 3 4 4 3 4 4
12 11 10 10 10 10 11 11 11 11 11 12 12 12 11 10 9 9 8 7 7 7 6 6 6 6 7 8 9 8 5 3 3 3 3 2 1 2 2 3 3 4 4
12 11 11 10 9 10 10 10 10 9 10 10 11 10 9 9 8 7 6 6 5 5 5 5 6 7 7 8 10 10 8 7 5 4 4 4 2 3 5 6 6 6 5
11 10 10 9 8 8 9 9 9 9 9 9 9 8 8 7 6 6 6 5 4 4 4 4 6 7 6 7 9 11 7 7 4 3 3 5 5 3 4 5 7 9 11
11 10 9 8 8 8 8 8 8 8 8 8 8 7 7 7 5 5 5 4 3 3 3 3 5 5 5 5 8 12 8 6 4 3 2 2 2 5 6 7 7 7 6
10 9 8 8 8 7 7 7 7 7 7 8 7 6 6 6 5 4 4 3 2 2 2 3 4 5 3 4 7 10 8 5 5 4 2 3 3 4 5 6 7 7 6
9 8 8 8 7 6 5 6 7 7 7 7 7 6 5 5 5 4 3 2 1 2 2 3 3 4 4 1 5 9 6 6 6 4 3 4 4 3 5 6 7 7 7
9 8 8 7 6 5 5 6 6 6 6 6 6 5 4 4 4 3 2 2 2 2 2 2 2 4 4 2 3 5 5 6 7 6 4 2 3 6 8 7 6 7 8
9 8 7 7 6 5 5 6 6 5 5 5 5 4 3 3 3 1 2 2 3 3 2 2 2 3 3 2 1 5 6 6 6 6 5 4 7 11 12 8 8 10 9
8 8 8 8 6 5 5 6 5 4 4 4 3 2 2 2 2 2 2 2 2 3 3 3 3 3 2 2 3 6 9 8 5 6 10 12 13 11 8 6 9 8 5
8 7 7 7 6 6 6 5 4 4 3 3 2 1 1 0 2 3 4 5 5 6 5 5 5 4 4 6 6 7 7 8 6 7 11 12 10 7 7 8 5 3 4
7 7 7 7 7 7 6 5 4 3 2 1 0 0 0 1 2 4 5 5 6 5 5 6 6 5 5 5 6 5 6 7 7 9 7 5 4 4 4 3 3 3 3
8 7 7 7 7 6 5 4 4 3 1 0 1 1 0 0 1 4 5 8 6 5 5 5 4 3 3 6 8 9 10 11 10 7 5 5 4 4 4 4 4 3 3
Wind_Direction
133 130 131 133 135 135 144 158 174 162 164 174 183 191 200 192 181 180 168 168 178 189 188 217 204 196 209 214 213 218 221 228 209 174 74 22 3 85 131 107 130 145 154
87 94 105 111 120 133 147 159 172 171 177 178 181 184 190 190 185 180 168 165 170 178 195 206 214 212 219 230 224 214 216 216 192 181 147 200 226 238 204 167 165 154 155
47 68 76 83 101 108 127 158 164 167 180 180 176 184 179 185 192 172 154 145 142 153 181 197 212 240 240 246 239 221 213 210 204 190 180 195 210 164 166 230 158 134 145
38 45 49 54 56 65 82 83 99 118 146 167 188 197 198 199 193 157 139 132 118 112 99 62 28 279 295 304 300 280 245 220 209 197 189 162 121 163 170 205 198 168 150
51 44 40 42 38 40 52 65 71 69 80 109 141 175 199 180 137 119 118 96 72 68 70 62 49 41 47 55 45 25 24 341 201 167 140 140 83 78 156 178 174 185 170
56 49 42 40 35 36 44 49 54 51 49 59 61 71 80 81 98 106 104 85 67 53 55 62 56 48 47 54 57 54 52 51 56 58 60 74 95 110 134 145 150 172 150
58 51 45 41 39 37 39 46 54 52 50 54 55 55 64 70 75 81 82 82 70 58 52 60 60 56 53 53 56 58 55 53 58 58 57 52 42 36 46 77 94 118 122
63 57 52 49 47 44 42 47 53 54 53 56 56 54 57 64 65 65 70 69 69 65 65 65 65 62 59 59 59 61 59 57 57 56 53 53 40 38 41 44 43 46 30
68 63 59 56 55 52 50 53 57 57 56 58 62 60 61 67 72 71 69 69 68 70 67 66 65 61 59 60 61 60 58 58 54 52 49 48 38 33 32 34 37 49 34
74 68 65 64 61 60 60 60 62 64 63 63 65 68 66 69 72 74 75 75 72 72 71 69 66 63 60 57 59 59 55 58 52 49 47 43 34 31 26 23 26 36 38
81 75 71 69 69 67 65 66 67 69 68 69 70 72 71 72 73 73 74 74 73 72 72 71 70 67 64 60 61 61 56 59 55 49 47 40 33 24 14 12 14 22 34
86 80 76 72 70 69 69 69 70 72 73 74 76 77 77 77 77 76 74 74 74 71 72 72 71 69 67 62 61 59 54 53 51 42 39 33 32 20 18 3 353 348 330
90 84 78 74 72 71 71 72 72 75 76 78 79 79 77 77 77 77 76 75 74 72 69 68 68 66 63 59 55 57 54 50 47 35 26 27 28 21 8 331 337 330 335
94 89 84 81 80 79 78 79 78 79 81 80 80 79 78 79 81 81 80 79 79 78 74 72 69 64 54 43 30 20 35 24 25 14 355 15 32 29 356 337 353 343 331
100 95 92 88 86 85 84 84 84 83 85 86 85 85 86 86 85 84 84 85 85 87 86 80 75 72 59 36 20 1 7 2 4 358 348 353 81 88 318 336 348 334 329
108 104 102 98 94 93 93 92 91 91 91 91 93 93 92 91 91 93 94 93 92 91 89 84 76 65 55 31 17 6 352 344 353 357 348 326 163 207 239 263 275 278 287
115 111 107 104 102 102 103 102 102 102 99 97 99 100 100 98 99 99 97 93 94 94 89 88 88 83 60 21 3 357 332 314 321 336 336 339 14 10 354 325 292 273 262
120 116 113 108 105 104 105 109 110 108 106 104 103 102 101 99 98 94 92 90 88 85 84 86 93 95 72 11 354 344 320 303 310 311 309 323 0 26 4 332 319 309 297
118 116 115 114 113 113 114 112 108 106 105 102 101 100 98 96 91 85 82 77 73 74 78 78 94 105 97 7 353 349 322 331 334 327 359 359 47 56 355 323 314 314 315
115 117 116 116 114 113 113 109 106 104 101 100 97 91 86 82 75 66 60 48 20 25 40 67 82 103 110 52 348 349 339 352 346 353 28 62 37 357 331 317 314 315 324
120 122 118 115 117 120 117 113 109 103 103 105 104 102 99 95 85 61 27 1 6 17 14 42 84 105 111 149 306 337 346 353 341 344 350 35 344 319 308 295 281 293 310
124 122 119 119 123 126 123 115 108 107 105 101 100 100 91 81 81 49 1 354 348 357 30 50 68 109 132 105 277 300 307 310 320 329 339 337 313 309 303 292 285 302 308
129 129 127 124 124 123 117 113 110 107 107 107 103 88 74 52 27 356 0 7 6 15 24 30 47 61 73 78 344 318 308 303 299 319 320 311 305 305 301 299 304 305 294
138 137 135 132 130 129 122 116 113 113 114 118 123 143 140 81 52 25 21 33 25 20 11 20 22 26 49 32 7 348 342 347 344 340 320 313 310 305 299 305 303 285 293
139 136 134 131 130 132 133 132 126 125 119 131 200 240 123 100 94 79 51 49 59 47 22 13 10 14 17 9 338 328 332 335 333 325 310 320 337 340 338 335 326 312 311
132 132 132 131 134 135 135 138 142 140 135 268 298 296 199 150 140 127 105 62 86 93 73 47 19 36 20 330 325 324 319 313 314 317 319 336 348 354 354 351 341 330 329